This demonstration page uses our WeatherBlox Daily Observations layout. Learn more.

36.17497, -115.13722

Hourly Observations for May 3, 2018

Temp ( °F °C ) Dew Point ( °F °C ) Humidity (%) Winds ( mph kmh ) Pressure ( in mb ) Visibility ( mi km ) Precip ( " mm )
12:53 am 00:53 Clear 57 13.9 45 7.2 64 64 NE 6 9 30.06 1018 10 16.09344 0 0
1:53 am 01:53 Clear 56 13.3 45 7.2 67 67 NNW 3 6 30.06 1018 10 16.09344 0 0
2:53 am 02:53 Clear 55 12.8 45 7.2 69 69 N 5 7 30.06 1018 10 16.09344 0 0
3:53 am 03:53 Clear 55 12.8 44 6.7 67 67 N 5 7 30.06 1018 10 16.09344 0 0
4:53 am 04:53 Clear 54 12.2 44 6.7 69 69 NW 5 7 30.06 1018 10 16.09344 0 0
5:53 am 05:53 Sunny 54 12.2 44 6.7 69 69 Calm 30.09 1019 10 16.09344 0 0
6:53 am 06:53 Sunny 56 13.3 44 6.7 65 65 NNW 6 9 30.12 1020 10 16.09344 0 0
7:53 am 07:53 Sunny 59 15 45 7.2 60 60 NE 3 6 30.15 1021 10 16.09344 0 0
8:53 am 08:53 Sunny 63 17.2 45 7.2 52 52 E 5 7 30.15 1021 10 16.09344 0 0
9:53 am 09:53 Sunny 65 18.3 44 6.7 47 47 E 9 15 30.15 1021 10 16.09344 0 0
10:53 am 10:53 Sunny 68 20 43 6.1 40 40 ESE 6 9 30.15 1021 10 16.09344 0 0
11:53 am 11:53 Sunny 71 21.7 41 5 34 34 E 9 15 30.15 1021 10 16.09344 0 0
12:53 pm 12:53 Sunny 75 23.9 38 3.3 26 26 E 8 13 30.15 1021 10 16.09344 0 0
1:53 pm 13:53 Sunny 75 23.9 34 1.1 22 22 S 6 9 30.12 1020 10 16.09344 0 0
2:53 pm 14:53 Sunny 77 25 33 0.6 20 20 SE 10 17 30.12 1020 10 16.09344 0 0
3:53 pm 15:53 Sunny 79 26.1 29 -1.7 16 16 Calm 30.09 1019 10 16.09344 0 0
4:53 pm 16:53 Sunny 78 25.6 29 -1.7 16 16 SE 6 9 30.09 1019 10 16.09344 0 0
5:53 pm 17:53 Sunny 79 26.1 30 -1.1 17 17 ESE 12 19 30.09 1019 10 16.09344 0 0
6:53 pm 18:53 Sunny 77 25 29 -1.7 17 17 ESE 9 15 30.09 1019 10 16.09344 0 0
7:53 pm 19:53 Clear 76 24.4 30 -1.1 18 18 S 7 11 30.09 1019 10 16.09344 0 0
8:53 pm 20:53 Clear 75 23.9 32 0 21 21 Calm 30.12 1020 10 16.09344 0 0
9:53 pm 21:53 Clear 72 22.2 35 1.7 26 26 Calm 30.12 1020 10 16.09344 0 0
10:53 pm 22:53 Clear 68 20 39 3.9 35 35 Calm 30.15 1021 10 16.09344 0 0
11:53 pm 23:53 Clear 68 20 41 5 38 38 WNW 3 6 30.15 1021 10 16.09344 0 0

Powered by AerisWeather